timestamp,surface_pressure_avg,surface_temp_avg,battery_voltage,lat,long
2019-02-26 00:00:00+00:00,237.9281,-0.8,12.73,47.84626,-54.09684
2019-02-26 00:10:00+00:00,242.1097,-0.8,12.65,47.84626,-54.09684
2019-02-26 00:20:00+00:00,246.7548,-0.75,12.73,47.84626,-54.09684
2019-02-26 00:30:00+00:00,247.5348,-0.76,12.73,47.84626,-54.09684
2019-02-26 00:40:00+00:00,252.7581,-0.75,12.73,47.84626,-54.09684
2019-02-26 00:50:00+00:00,263.5014,-0.72,12.81,47.84626,-54.09684
2019-02-26 01:00:00+00:00,271.8114,-0.7,12.65,47.84626,-54.09684
2019-02-26 01:10:00+00:00,273.2964,-0.7,12.65,47.84626,-54.09684
2019-02-26 01:20:00+00:00,269.8547,-0.7,12.73,47.84626,-54.09684
2019-02-26 01:30:00+00:00,281.4614,-0.7,12.73,47.84626,-54.09684
2019-02-26 01:40:00+00:00,288.9581,-0.7,12.73,47.84626,-54.09684
2019-02-26 01:50:00+00:00,280.738,-0.7,12.81,47.84626,-54.09684
2019-02-26 02:00:00+00:00,275.8647,-0.7,12.73,47.84626,-54.09684
2019-02-26 02:10:00+00:00,300.6614,-0.7,12.65,47.84626,-54.09684
2019-02-26 02:20:00+00:00,317.573,-0.7,12.73,47.84626,-54.09684
2019-02-26 02:30:00+00:00,310.7513,-0.76,12.73,47.84626,-54.09684
2019-02-26 02:40:00+00:00,308.683,-0.7,12.73,47.84626,-54.09684
2019-02-26 02:50:00+00:00,325.7897,-0.7,12.81,47.84626,-54.09684
2019-02-26 03:00:00+00:00,330.6896,-0.7,12.73,47.84626,-54.09684
2019-02-26 03:10:00+00:00,322.1546,-0.7,12.65,47.84626,-54.09684
2019-02-26 03:20:00+00:00,328.5263,-0.7,12.73,47.84626,-54.09684
2019-02-26 03:30:00+00:00,344.6963,-0.7,12.73,47.84626,-54.09684
2019-02-26 03:40:00+00:00,343.0012,-0.7,12.73,47.84626,-54.09684
2019-02-26 03:50:00+00:00,332.3696,-0.7,12.81,47.84626,-54.09684
2019-02-26 04:00:00+00:00,342.4913,-0.7,12.73,47.84626,-54.09684
2019-02-26 04:10:00+00:00,356.4813,-0.69,12.65,47.84626,-54.09684
2019-02-26 04:20:00+00:00,350.6712,-0.7,12.73,47.84626,-54.09684
2019-02-26 04:30:00+00:00,348.3813,-0.62,12.73,47.84626,-54.09684
2019-02-26 04:40:00+00:00,357.5864,-0.6,12.73,47.84626,-54.09684
2019-02-26 04:50:00+00:00,352.5663,-0.6,12.81,47.84626,-54.09684
2019-02-26 05:00:00+00:00,339.2664,-0.6,12.73,47.84626,-54.09684
2019-02-26 05:10:00+00:00,344.1629,-0.6,12.65,47.84626,-54.09684
2019-02-26 05:20:00+00:00,352.8696,-0.6,12.73,47.84626,-54.09684
2019-02-26 05:30:00+00:00,346.4347,-0.6,12.73,47.84626,-54.09684
2019-02-26 05:40:00+00:00,344.6912,-0.6,12.73,47.84626,-54.09684
2019-02-26 05:50:00+00:00,354.3296,-0.6,12.81,47.84626,-54.09684
2019-02-26 06:00:00+00:00,355.0546,-0.6,12.73,47.84626,-54.09684
2019-02-26 06:10:00+00:00,341.8013,-0.6,12.65,47.84626,-54.09684
2019-02-26 06:20:00+00:00,345.2213,-0.6,12.73,47.84626,-54.09684
2019-02-26 06:30:00+00:00,350.9446,-0.6,12.73,47.84626,-54.09684
2019-02-26 06:40:00+00:00,337.898,-0.6,12.73,47.84626,-54.09684
2019-02-26 06:50:00+00:00,326.2247,-0.6,12.81,47.84626,-54.09684
2019-02-26 07:00:00+00:00,328.3264,-0.6,12.73,47.84626,-54.09684
2019-02-26 07:10:00+00:00,328.5429,-0.6,12.65,47.84626,-54.09684
2019-02-26 07:20:00+00:00,317.4147,-0.6,12.73,47.84626,-54.09684
2019-02-26 07:30:00+00:00,311.5263,-0.6,12.73,47.84626,-54.09684
2019-02-26 07:40:00+00:00,306.4097,-0.6,12.73,47.84626,-54.09684
2019-02-26 07:50:00+00:00,293.8914,-0.6,12.81,47.84626,-54.09684
2019-02-26 08:00:00+00:00,277.0697,-0.6,12.73,47.84626,-54.09684
2019-02-26 08:10:00+00:00,267.0448,-0.6,12.65,47.84626,-54.09684
2019-02-26 08:20:00+00:00,262.5114,-0.6,12.73,47.84626,-54.09684
2019-02-26 08:30:00+00:00,259.7081,-0.6,12.73,47.84626,-54.09684
2019-02-26 08:40:00+00:00,259.5964,-0.6,12.73,47.84626,-54.09684
2019-02-26 08:50:00+00:00,251.7781,-0.6,12.81,47.84626,-54.09684
2019-02-26 09:00:00+00:00,238.6647,-0.6,12.73,47.84626,-54.09684
2019-02-26 09:10:00+00:00,234.7364,-0.6,12.65,47.84626,-54.09684
2019-02-26 09:20:00+00:00,239.0448,-0.6,12.73,47.84626,-54.09684
2019-02-26 09:30:00+00:00,235.8014,-0.6,12.73,47.84626,-54.09684
2019-02-26 09:40:00+00:00,227.6515,-0.6,12.73,47.84626,-54.09684
2019-02-26 09:50:00+00:00,227.2097,-0.6,12.81,47.84626,-54.09684
2019-02-26 10:00:00+00:00,226.5381,-0.6,12.73,47.84626,-54.09684
2019-02-26 10:10:00+00:00,220.4981,-0.6,12.65,47.84626,-54.09684
2019-02-26 10:20:00+00:00,221.1698,-0.6,12.73,47.84626,-54.09684
2019-02-26 10:30:00+00:00,225.8314,-0.59,12.73,47.84626,-54.09684
2019-02-26 10:40:00+00:00,228.8131,-0.54,12.73,47.84626,-54.09684
2019-02-26 10:50:00+00:00,231.6298,-0.51,12.81,47.84626,-54.09684
2019-02-26 11:00:00+00:00,228.5231,-0.5,12.73,47.84626,-54.09684
2019-02-26 11:10:00+00:00,228.5298,-0.5,12.65,47.84626,-54.09684
2019-02-26 11:20:00+00:00,238.5865,-0.5,12.73,47.84626,-54.09684
2019-02-26 11:30:00+00:00,246.9847,-0.5,12.73,47.84626,-54.09684
2019-02-26 11:40:00+00:00,247.6048,-0.5,12.81,47.84626,-54.09684
2019-02-26 11:50:00+00:00,247.1498,-0.5,12.81,47.84626,-54.09684
2019-02-26 12:00:00+00:00,250.7497,-0.5,12.73,47.84626,-54.09684
2019-02-26 12:10:00+00:00,254.9064,-0.5,12.65,47.84626,-54.09684
2019-02-26 12:20:00+00:00,257.3764,-0.5,12.81,47.84626,-54.09684
2019-02-26 12:30:00+00:00,262.1114,-0.5,12.81,47.84626,-54.09684
2019-02-26 12:40:00+00:00,271.5514,-0.5,12.81,47.84626,-54.09684
2019-02-26 12:50:00+00:00,274.718,-0.5,12.81,47.84626,-54.09684
2019-02-26 13:00:00+00:00,275.748,-0.5,12.73,47.84626,-54.09684
2019-02-26 13:10:00+00:00,281.6047,-0.5,12.65,47.84626,-54.09684
2019-02-26 13:20:00+00:00,286.0847,-0.5,12.73,47.84626,-54.09684
2019-02-26 13:30:00+00:00,284.6864,-0.5,12.73,47.84626,-54.09684
2019-02-26 13:40:00+00:00,283.8763,-0.5,12.81,47.84626,-54.09684
2019-02-26 13:50:00+00:00,293.1347,-0.5,12.81,47.84626,-54.09684
2019-02-26 14:00:00+00:00,300.3864,-0.5,12.73,47.84626,-54.09684
2019-02-26 14:10:00+00:00,299.063,-0.5,12.65,47.84626,-54.09684
2019-02-26 14:20:00+00:00,301.7564,-0.5,12.81,47.84626,-54.09684
2019-02-26 14:30:00+00:00,313.308,-0.5,12.81,47.84626,-54.09684
2019-02-26 14:40:00+00:00,316.563,-0.5,12.89,47.84626,-54.09684
2019-02-26 14:50:00+00:00,316.193,-0.5,12.97,47.84626,-54.09684
2019-02-26 15:00:00+00:00,323.208,-0.5,12.89,47.84626,-54.09684
2019-02-26 15:10:00+00:00,329.943,-0.5,12.81,47.84626,-54.09684
2019-02-26 15:20:00+00:00,328.0196,-0.5,12.81,47.84626,-54.09684
2019-02-26 15:30:00+00:00,323.5714,-0.5,12.89,47.84626,-54.09684
2019-02-26 15:40:00+00:00,325.3097,-0.5,12.89,47.84626,-54.09684
2019-02-26 15:50:00+00:00,332.798,-0.5,12.97,47.84626,-54.09684
2019-02-26 16:00:00+00:00,332.708,-0.5,12.89,47.84626,-54.09684
2019-02-26 16:10:00+00:00,327.6846,-0.5,12.73,47.84626,-54.09684
2019-02-26 16:20:00+00:00,329.9013,-0.45,12.81,47.84626,-54.09684
2019-02-26 16:30:00+00:00,336.873,-0.44,12.81,47.84626,-54.09684
2019-02-26 16:40:00+00:00,336.5246,-0.43,12.81,47.84626,-54.09684
2019-02-26 16:50:00+00:00,332.6029,-0.42,12.89,47.84626,-54.09684
2019-02-26 17:00:00+00:00,341.1147,-0.4,12.81,47.84626,-54.09684
2019-02-26 17:10:00+00:00,353.4047,-0.41,12.73,47.84626,-54.09684
2019-02-26 17:20:00+00:00,350.5796,-0.42,12.81,47.84626,-54.09684
2019-02-26 17:30:00+00:00,340.8646,-0.41,12.81,47.84626,-54.09684
2019-02-26 17:40:00+00:00,350.2897,-0.4,12.81,47.84626,-54.09684
2019-02-26 17:50:00+00:00,356.2629,-0.4,12.89,47.84626,-54.09684
2019-02-26 18:00:00+00:00,345.3663,-0.43,12.81,47.84626,-54.09684
2019-02-26 18:10:00+00:00,342.2996,-0.42,12.73,47.84626,-54.09684
2019-02-26 18:20:00+00:00,349.3079,-0.41,12.81,47.84626,-54.09684
2019-02-26 18:30:00+00:00,344.9346,-0.44,12.81,47.84626,-54.09684
2019-02-26 18:40:00+00:00,333.0314,-0.46,12.89,47.84626,-54.09684
2019-02-26 18:50:00+00:00,334.4813,-0.45,12.89,47.84626,-54.09684
2019-02-26 19:00:00+00:00,333.918,-0.44,12.81,47.84626,-54.09684
2019-02-26 19:10:00+00:00,323.5079,-0.47,12.73,47.84626,-54.09684
2019-02-26 19:20:00+00:00,316.968,-0.47,12.81,47.84626,-54.09684
2019-02-26 19:30:00+00:00,315.2197,-0.47,12.81,47.84626,-54.09684
2019-02-26 19:40:00+00:00,307.2147,-0.47,12.81,47.84626,-54.09684
2019-02-26 19:50:00+00:00,296.9696,-0.47,12.81,47.84626,-54.09684
2019-02-26 20:00:00+00:00,295.5997,-0.48,12.73,47.84626,-54.09684
2019-02-26 20:10:00+00:00,289.5647,-0.49,12.65,47.84626,-54.09684
2019-02-26 20:20:00+00:00,279.5181,-0.5,12.73,47.84626,-54.09684
2019-02-26 20:30:00+00:00,269.8431,-0.5,12.73,47.84626,-54.09684
2019-02-26 20:40:00+00:00,269.8214,-0.5,12.73,47.84626,-54.09684
2019-02-26 20:50:00+00:00,268.1747,-0.5,12.81,47.84626,-54.09684
2019-02-26 21:00:00+00:00,259.4531,-0.5,12.65,47.84626,-54.09684
2019-02-26 21:10:00+00:00,253.0647,-0.5,12.65,47.84626,-54.09684
2019-02-26 21:20:00+00:00,255.0114,-0.5,12.73,47.84626,-54.09684
2019-02-26 21:30:00+00:00,251.3548,-0.5,12.73,47.84626,-54.09684
2019-02-26 21:40:00+00:00,242.8431,-0.5,12.73,47.84626,-54.09684
2019-02-26 21:50:00+00:00,239.2314,-0.5,12.73,47.84626,-54.09684
2019-02-26 22:00:00+00:00,237.4998,-0.5,12.65,47.84626,-54.09684
2019-02-26 22:10:00+00:00,227.5398,-0.5,12.65,47.84626,-54.09684
2019-02-26 22:20:00+00:00,221.8498,-0.52,12.73,47.84626,-54.09684
2019-02-26 22:30:00+00:00,228.3798,-0.52,12.73,47.84626,-54.09684
2019-02-26 22:40:00+00:00,229.6397,-0.52,12.73,47.84626,-54.09684
2019-02-26 22:50:00+00:00,225.2248,-0.54,12.73,47.84626,-54.09684
2019-02-26 23:00:00+00:00,230.0431,-0.56,12.65,47.84626,-54.09684
2019-02-26 23:10:00+00:00,237.0181,-0.56,12.65,47.84626,-54.09684
2019-02-26 23:20:00+00:00,235.4414,-0.6,12.73,47.84626,-54.09684
2019-02-26 23:30:00+00:00,235.3415,-0.6,12.73,47.84626,-54.09684
2019-02-26 23:40:00+00:00,240.2064,-0.6,12.73,47.84626,-54.09684
2019-02-26 23:50:00+00:00,241.5981,-0.6,12.73,47.84626,-54.09684
